QPF
0.00 0.00 0.00 0.00 0.00 0.00 0.00 0.00 0.00 0.00 0.00 0.00 0.01 0.01 0.01 0.01 0.01 0.01 0.02 0.04 0.04 0.05 0.05 0.05 0.04 0.04 0.03 0.05 0.07 0.08 0.09 0.10 0.06 0.05 0.05 0.04 0.04 0.04 0.03 0.05 0.07 0.04 0.02
0.00 0.00 0.00 0.00 0.00 0.00 0.00 0.01 0.01 0.00 0.00 0.01 0.01 0.00 0.00 0.01 0.01 0.01 0.01 0.02 0.03 0.03 0.04 0.04 0.03 0.03 0.05 0.05 0.08 0.12 0.16 0.16 0.13 0.09 0.05 0.04 0.04 0.04 0.04 0.05 0.06 0.05 0.03
0.00 0.00 0.00 0.00 0.00 0.00 0.00 0.01 0.00 0.01 0.00 0.00 0.01 0.00 0.00 0.00 0.01 0.01 0.01 0.01 0.01 0.01 0.03 0.04 0.05 0.05 0.05 0.06 0.08 0.11 0.18 0.18 0.17 0.13 0.07 0.05 0.04 0.03 0.04 0.04 0.04 0.04 0.04
0.00 0.00 0.00 0.00 0.00 0.00 0.00 0.00 0.00 0.00 0.00 0.00 0.00 0.00 0.01 0.00 0.01 0.01 0.01 0.01 0.01 0.01 0.02 0.04 0.05 0.04 0.03 0.05 0.06 0.07 0.11 0.17 0.17 0.14 0.09 0.06 0.04 0.03 0.03 0.03 0.04 0.05 0.04
0.00 0.00 0.00 0.00 0.00 0.00 0.00 0.00 0.00 0.00 0.00 0.01 0.01 0.01 0.01 0.01 0.01 0.01 0.01 0.01 0.01 0.01 0.00 0.02 0.04 0.04 0.03 0.03 0.05 0.06 0.06 0.09 0.11 0.10 0.09 0.07 0.05 0.03 0.02 0.03 0.05 0.07 0.07
0.00 0.00 0.00 0.00 0.00 0.00 0.00 0.00 0.00 0.00 0.00 0.01 0.01 0.01 0.02 0.02 0.03 0.03 0.02 0.02 0.02 0.03 0.02 0.01 0.02 0.02 0.02 0.03 0.05 0.07 0.06 0.07 0.08 0.06 0.05 0.05 0.04 0.03 0.03 0.04 0.05 0.06 0.07
0.00 0.00 0.00 0.00 0.00 0.00 0.00 0.00 0.00 0.00 0.00 0.01 0.00 0.01 0.02 0.01 0.02 0.03 0.03 0.03 0.04 0.04 0.03 0.02 0.01 0.01 0.01 0.02 0.03 0.05 0.06 0.06 0.06 0.05 0.04 0.04 0.04 0.04 0.04 0.03 0.04 0.06 0.06
0.00 0.00 0.00 0.00 0.00 0.00 0.00 0.00 0.00 0.00 0.00 0.01 0.01 0.01 0.02 0.02 0.02 0.01 0.03 0.03 0.04 0.03 0.02 0.01 0.01 0.01 0.01 0.02 0.02 0.03 0.05 0.05 0.04 0.04 0.04 0.03 0.03 0.03 0.03 0.03 0.04 0.05 0.06
0.00 0.00 0.00 0.00 0.00 0.00 0.00 0.00 0.00 0.00 0.00 0.01 0.01 0.01 0.02 0.02 0.03 0.02 0.03 0.03 0.03 0.02 0.03 0.02 0.02 0.02 0.01 0.01 0.01 0.01 0.02 0.03 0.03 0.03 0.04 0.04 0.04 0.03 0.02 0.02 0.03 0.04 0.05
0.00 0.00 0.00 0.00 0.00 0.00 0.00 0.00 0.00 0.00 0.01 0.02 0.02 0.02 0.02 0.02 0.02 0.04 0.05 0.04 0.04 0.02 0.02 0.02 0.03 0.03 0.02 0.01 0.01 0.01 0.02 0.02 0.03 0.05 0.05 0.05 0.04 0.04 0.04 0.04 0.10 0.09 0.08
0.00 0.00 0.00 0.00 0.00 0.00 0.00 0.00 0.00 0.00 0.00 0.01 0.02 0.02 0.03 0.01 0.01 0.03 0.02 0.03 0.03 0.03 0.03 0.03 0.02 0.02 0.02 0.02 0.02 0.03 0.03 0.03 0.06 0.05 0.05 0.05 0.04 0.04 0.04 0.04 0.11 0.14 0.14
0.00 0.00 0.00 0.00 0.00 0.00 0.00 0.00 0.00 0.00 0.00 0.00 0.01 0.01 0.02 0.02 0.02 0.02 0.02 0.02 0.02 0.03 0.04 0.04 0.03 0.02 0.01 0.02 0.03 0.04 0.03 0.04 0.12 0.08 0.05 0.06 0.06 0.05 0.05 0.06 0.07 0.14 0.15
0.00 0.00 0.00 0.00 0.00 0.00 0.00 0.00 0.00 0.00 0.00 0.01 0.01 0.01 0.01 0.01 0.01 0.01 0.01 0.01 0.02 0.02 0.02 0.03 0.02 0.02 0.02 0.02 0.03 0.04 0.04 0.04 0.13 0.12 0.06 0.03 0.05 0.05 0.08 0.09 0.08 0.09 0.12
0.00 0.00 0.00 0.00 0.00 0.00 0.00 0.00 0.00 0.00 0.00 0.01 0.01 0.01 0.01 0.01 0.01 0.01 0.00 0.01 0.01 0.01 0.01 0.02 0.01 0.01 0.02 0.03 0.03 0.02 0.02 0.03 0.09 0.09 0.08 0.04 0.02 0.03 0.09 0.15 0.09 0.07 0.09
0.00 0.00 0.01 0.00 0.00 0.00 0.00 0.00 0.00 0.00 0.00 0.00 0.00 0.00 0.00 0.01 0.01 0.00 0.00 0.01 0.00 0.01 0.02 0.02 0.01 0.01 0.02 0.02 0.02 0.02 0.01 0.02 0.06 0.07 0.06 0.03 0.02 0.03 0.09 0.22 0.17 0.07 0.04
0.00 0.00 0.00 0.00 0.00 0.00 0.00 0.00 0.00 0.00 0.00 0.00 0.00 0.00 0.00 0.00 0.00 0.00 0.00 0.01 0.01 0.00 0.01 0.01 0.02 0.02 0.02 0.01 0.01 0.01 0.01 0.01 0.03 0.05 0.03 0.02 0.02 0.03 0.09 0.17 0.24 0.13 0.04
0.00 0.00 0.00 0.00 0.00 0.00 0.00 0.00 0.01 0.00 0.00 0.00 0.00 0.00 0.00 0.00 0.00 0.00 0.00 0.00 0.01 0.00 0.00 0.00 0.01 0.01 0.01 0.01 0.01 0.01 0.01 0.01 0.02 0.03 0.03 0.02 0.02 0.03 0.06 0.11 0.19 0.20 0.11
0.00 0.00 0.00 0.00 0.00 0.00 0.00 0.00 0.00 0.00 0.00 0.00 0.00 0.00 0.00 0.00 0.00 0.00 0.00 0.00 0.00 0.00 0.00 0.00 0.00 0.01 0.01 0.01 0.01 0.01 0.02 0.02 0.02 0.02 0.02 0.02 0.02 0.02 0.04 0.07 0.13 0.19 0.18
0.00 0.00 0.00 0.00 0.00 0.00 0.00 0.00 0.00 0.00 0.00 0.00 0.00 0.00 0.00 0.00 0.00 0.00 0.00 0.00 0.00 0.00 0.00 0.00 0.00 0.00 0.01 0.01 0.00 0.00 0.01 0.01 0.01 0.01 0.01 0.01 0.01 0.02 0.03 0.05 0.08 0.12 0.14
0.00 0.00 0.00 0.00 0.00 0.00 0.00 0.00 0.00 0.00 0.00 0.00 0.00 0.00 0.01 0.01 0.00 0.00 0.00 0.00 0.01 0.01 0.00 0.00 0.00 0.00 0.00 0.00 0.00 0.01 0.01 0.01 0.01 0.01 0.00 0.00 0.00 0.01 0.02 0.03 0.05 0.06 0.08
0.00 0.00 0.00 0.00 0.01 0.00 0.00 0.01 0.01 0.00 0.01 0.00 0.00 0.00 0.00 0.01 0.01 0.01 0.01 0.01 0.01 0.00 0.00 0.00 0.00 0.00 0.00 0.00 0.00 0.00 0.00 0.00 0.00 0.00 0.00 0.00 0.00 0.00 0.00 0.01 0.03 0.04 0.04
0.00 0.00 0.00 0.00 0.00 0.00 0.00 0.00 0.00 0.00 0.00 0.00 0.00 0.00 0.00 0.00 0.01 0.01 0.01 0.01 0.01 0.01 0.01 0.01 0.01 0.00 0.00 0.00 0.00 0.00 0.00 0.00 0.00 0.00 0.00 0.00 0.00 0.00 0.00 0.00 0.01 0.02 0.03
0.00 0.00 0.00 0.00 0.00 0.00 0.00 0.00 0.00 0.00 0.00 0.00 0.00 0.00 0.00 0.00 0.01 0.00 0.00 0.00 0.01 0.01 0.01 0.01 0.00 0.00 0.00 0.00 0.01 0.01 0.00 0.00 0.00 0.00 0.00 0.00 0.00 0.00 0.00 0.00 0.00 0.00 0.01
0.00 0.00 0.00 0.00 0.00 0.00 0.00 0.00 0.00 0.00 0.00 0.00 0.00 0.00 0.00 0.00 0.00 0.00 0.00 0.00 0.00 0.00 0.00 0.00 0.00 0.01 0.01 0.00 0.00 0.01 0.01 0.01 0.00 0.00 0.00 0.00 0.00 0.00 0.00 0.00 0.00 0.00 0.00
0.00 0.00 0.00 0.00 0.00 0.00 0.00 0.00 0.00 0.00 0.00 0.00 0.00 0.00 0.00 0.00 0.00 0.00 0.00 0.00 0.00 0.00 0.00 0.00 0.00 0.00 0.01 0.01 0.01 0.01 0.01 0.01 0.01 0.00 0.00 0.00 0.00 0.00 0.00 0.00 0.00 0.00 0.00
0.00 0.00 0.00 0.00 0.00 0.00 0.00 0.00 0.00 0.00 0.00 0.00 0.00 0.00 0.00 0.00 0.00 0.00 0.00 0.00 0.00 0.00 0.00 0.00 0.00 0.00 0.00 0.00 0.01 0.00 0.01 0.01 0.01 0.01 0.00 0.01 0.00 0.00 0.00 0.00 0.00 0.00 0.00
MSLP
1016.45 1016.24 1015.99 1015.73 1015.46 1015.21 1014.98 1014.77 1014.57 1014.37 1014.16 1013.94 1013.71 1013.51 1013.34 1013.25 1013.23 1013.30 1013.45 1013.65 1013.88 1014.11 1014.30 1014.45 1014.56 1014.63 1014.68 1014.73 1014.81 1014.93 1015.09 1015.29 1015.54 1015.79 1016.06 1016.30 1016.53 1016.72 1016.88 1017.01 1017.13 1017.26 1017.39
1016.62 1016.39 1016.13 1015.85 1015.57 1015.31 1015.07 1014.84 1014.62 1014.39 1014.16 1013.94 1013.72 1013.53 1013.38 1013.29 1013.27 1013.33 1013.44 1013.59 1013.76 1013.92 1014.06 1014.17 1014.24 1014.29 1014.33 1014.39 1014.47 1014.60 1014.77 1015.00 1015.25 1015.54 1015.83 1016.10 1016.35 1016.56 1016.73 1016.86 1016.96 1017.05 1017.15
1016.79 1016.54 1016.27 1015.99 1015.71 1015.45 1015.20 1014.96 1014.72 1014.48 1014.25 1014.03 1013.83 1013.66 1013.54 1013.46 1013.44 1013.47 1013.53 1013.61 1013.69 1013.78 1013.84 1013.90 1013.94 1013.98 1014.04 1014.12 1014.24 1014.39 1014.59 1014.83 1015.10 1015.39 1015.69 1015.98 1016.25 1016.47 1016.65 1016.78 1016.87 1016.94 1017.01
1016.96 1016.69 1016.42 1016.15 1015.88 1015.62 1015.37 1015.11 1014.86 1014.62 1014.39 1014.18 1014.01 1013.87 1013.78 1013.72 1013.69 1013.68 1013.68 1013.69 1013.69 1013.68 1013.68 1013.70 1013.73 1013.79 1013.88 1014.00 1014.15 1014.34 1014.55 1014.78 1015.03 1015.30 1015.58 1015.86 1016.13 1016.36 1016.56 1016.71 1016.81 1016.87 1016.93
1017.12 1016.85 1016.59 1016.33 1016.08 1015.82 1015.56 1015.30 1015.03 1014.78 1014.55 1014.35 1014.20 1014.10 1014.04 1014.00 1013.97 1013.93 1013.88 1013.82 1013.74 1013.67 1013.62 1013.61 1013.65 1013.75 1013.88 1014.05 1014.23 1014.42 1014.60 1014.78 1014.96 1015.15 1015.36 1015.58 1015.82 1016.07 1016.29 1016.49 1016.64 1016.76 1016.84
1017.29 1017.03 1016.78 1016.54 1016.30 1016.05 1015.79 1015.50 1015.22 1014.94 1014.71 1014.52 1014.40 1014.33 1014.29 1014.28 1014.26 1014.20 1014.12 1014.00 1013.87 1013.76 1013.69 1013.69 1013.75 1013.89 1014.06 1014.25 1014.43 1014.57 1014.66 1014.71 1014.74 1014.78 1014.85 1014.97 1015.16 1015.40 1015.68 1015.97 1016.23 1016.45 1016.63
1017.47 1017.22 1016.99 1016.78 1016.56 1016.31 1016.03 1015.73 1015.42 1015.12 1014.87 1014.69 1014.59 1014.55 1014.55 1014.56 1014.55 1014.49 1014.39 1014.25 1014.09 1013.97 1013.90 1013.92 1014.02 1014.18 1014.38 1014.55 1014.67 1014.69 1014.61 1014.44 1014.23 1014.03 1013.89 1013.87 1013.98 1014.22 1014.58 1015.00 1015.44 1015.84 1016.19
1017.66 1017.43 1017.23 1017.04 1016.83 1016.59 1016.31 1015.98 1015.65 1015.33 1015.07 1014.89 1014.80 1014.78 1014.81 1014.85 1014.85 1014.81 1014.70 1014.55 1014.40 1014.28 1014.23 1014.27 1014.40 1014.58 1014.75 1014.86 1014.84 1014.67 1014.33 1013.86 1013.33 1012.82 1012.42 1012.21 1012.23 1012.48 1012.93 1013.54 1014.21 1014.87 1015.46
1017.86 1017.65 1017.48 1017.32 1017.13 1016.90 1016.61 1016.27 1015.92 1015.59 1015.32 1015.14 1015.06 1015.06 1015.11 1015.17 1015.19 1015.15 1015.05 1014.91 1014.76 1014.65 1014.63 1014.69 1014.82 1014.98 1015.09 1015.07 1014.87 1014.43 1013.77 1012.95 1012.05 1011.19 1010.50 1010.08 1009.99 1010.26 1010.83 1011.65 1012.59 1013.56 1014.45
1018.06 1017.88 1017.74 1017.60 1017.44 1017.22 1016.94 1016.60 1016.24 1015.91 1015.64 1015.47 1015.40 1015.41 1015.47 1015.54 1015.57 1015.53 1015.43 1015.29 1015.14 1015.04 1015.02 1015.08 1015.20 1015.30 1015.31 1015.13 1014.70 1013.97 1012.98 1011.78 1010.50 1009.30 1008.33 1007.71 1007.53 1007.82 1008.52 1009.56 1010.79 1012.07 1013.28
1018.25 1018.10 1017.99 1017.89 1017.75 1017.56 1017.29 1016.96 1016.61 1016.29 1016.03 1015.87 1015.80 1015.82 1015.89 1015.95 1015.97 1015.92 1015.80 1015.65 1015.49 1015.38 1015.35 1015.39 1015.46 1015.49 1015.38 1015.03 1014.37 1013.37 1012.06 1010.53 1008.93 1007.44 1006.23 1005.46 1005.21 1005.53 1006.36 1007.59 1009.07 1010.64 1012.13
1018.45 1018.33 1018.25 1018.17 1018.06 1017.89 1017.65 1017.35 1017.03 1016.72 1016.49 1016.34 1016.28 1016.30 1016.35 1016.39 1016.38 1016.29 1016.15 1015.96 1015.78 1015.64 1015.58 1015.58 1015.59 1015.53 1015.31 1014.81 1013.97 1012.76 1011.22 1009.45 1007.62 1005.93 1004.57 1003.70 1003.43 1003.78 1004.70 1006.09 1007.76 1009.53 1011.23
1018.65 1018.55 1018.50 1018.45 1018.37 1018.22 1018.02 1017.75 1017.47 1017.20 1016.99 1016.86 1016.80 1016.81 1016.83 1016.84 1016.78 1016.65 1016.45 1016.22 1016.00 1015.82 1015.71 1015.66 1015.61 1015.48 1015.17 1014.57 1013.62 1012.29 1010.64 1008.76 1006.83 1005.07 1003.66 1002.77 1002.51 1002.90 1003.88 1005.34 1007.10 1008.96 1010.75
1018.88 1018.80 1018.77 1018.74 1018.68 1018.57 1018.40 1018.18 1017.94 1017.71 1017.53 1017.41 1017.36 1017.34 1017.34 1017.29 1017.18 1016.99 1016.74 1016.45 1016.17 1015.95 1015.79 1015.69 1015.60 1015.42 1015.07 1014.44 1013.46 1012.13 1010.48 1008.64 1006.76 1005.05 1003.70 1002.86 1002.64 1003.05 1004.04 1005.49 1007.23 1009.05 1010.80
1019.16 1019.10 1019.08 1019.07 1019.03 1018.95 1018.81 1018.63 1018.44 1018.25 1018.10 1018.00 1017.94 1017.91 1017.86 1017.77 1017.60 1017.36 1017.04 1016.70 1016.37 1016.10 1015.90 1015.76 1015.63 1015.44 1015.09 1014.49 1013.58 1012.35 1010.84 1009.15 1007.44 1005.89 1004.69 1003.97 1003.81 1004.23 1005.17 1006.52 1008.12 1009.79 1011.38
1019.51 1019.47 1019.46 1019.46 1019.44 1019.38 1019.28 1019.14 1018.98 1018.83 1018.71 1018.62 1018.56 1018.51 1018.43 1018.29 1018.08 1017.78 1017.43 1017.04 1016.67 1016.36 1016.13 1015.96 1015.82 1015.64 1015.33 1014.81 1014.02 1012.97 1011.67 1010.23 1008.78 1007.48 1006.48 1005.89 1005.80 1006.21 1007.05 1008.23 1009.60 1011.01 1012.33
1019.97 1019.94 1019.93 1019.94 1019.93 1019.89 1019.81 1019.71 1019.59 1019.47 1019.37 1019.29 1019.23 1019.17 1019.06 1018.90 1018.65 1018.33 1017.94 1017.53 1017.14 1016.80 1016.55 1016.36 1016.22 1016.05 1015.80 1015.38 1014.75 1013.91 1012.87 1011.71 1010.55 1009.52 1008.74 1008.31 1008.28 1008.64 1009.34 1010.30 1011.38 1012.48 1013.47
1020.51 1020.49 1020.50 1020.50 1020.50 1020.48 1020.42 1020.35 1020.25 1020.16 1020.08 1020.02 1019.96 1019.88 1019.77 1019.59 1019.33 1019.00 1018.61 1018.19 1017.79 1017.45 1017.17 1016.98 1016.83 1016.68 1016.47 1016.15 1015.67 1015.02 1014.22 1013.34 1012.46 1011.68 1011.11 1010.80 1010.80 1011.09 1011.63 1012.34 1013.12 1013.89 1014.55
1021.13 1021.12 1021.13 1021.14 1021.15 1021.13 1021.10 1021.04 1020.97 1020.90 1020.83 1020.77 1020.71 1020.64 1020.52 1020.34 1020.09 1019.77 1019.40 1019.00 1018.61 1018.26 1017.98 1017.77 1017.61 1017.46 1017.28 1017.02 1016.65 1016.15 1015.55 1014.89 1014.24 1013.66 1013.24 1013.02 1013.02 1013.22 1013.59 1014.06 1014.56 1015.02 1015.40
1021.76 1021.77 1021.78 1021.81 1021.82 1021.82 1021.79 1021.75 1021.69 1021.63 1021.58 1021.52 1021.47 1021.39 1021.28 1021.12 1020.89 1020.60 1020.25 1019.88 1019.52 1019.18 1018.90 1018.67 1018.48 1018.31 1018.13 1017.89 1017.58 1017.18 1016.71 1016.20 1015.70 1015.26 1014.94 1014.76 1014.73 1014.84 1015.05 1015.31 1015.57 1015.79 1015.93
1022.37 1022.39 1022.42 1022.45 1022.47 1022.48 1022.47 1022.43 1022.38 1022.33 1022.27 1022.22 1022.16 1022.09 1021.99 1021.84 1021.64 1021.39 1021.09 1020.76 1020.42 1020.10 1019.82 1019.57 1019.35 1019.15 1018.94 1018.69 1018.39 1018.04 1017.63 1017.21 1016.79 1016.43 1016.15 1015.97 1015.90 1015.91 1015.99 1016.08 1016.16 1016.19 1016.18
1022.90 1022.94 1022.98 1023.03 1023.06 1023.07 1023.06 1023.03 1022.98 1022.92 1022.86 1022.80 1022.74 1022.67 1022.58 1022.45 1022.28 1022.07 1021.81 1021.53 1021.23 1020.93 1020.65 1020.39 1020.15 1019.91 1019.66 1019.38 1019.07 1018.72 1018.34 1017.94 1017.57 1017.23 1016.96 1016.76 1016.64 1016.57 1016.53 1016.51 1016.46 1016.38 1016.27
1023.32 1023.37 1023.44 1023.49 1023.54 1023.56 1023.55 1023.52 1023.46 1023.39 1023.32 1023.25 1023.18 1023.11 1023.02 1022.91 1022.76 1022.58 1022.37 1022.13 1021.86 1021.59 1021.33 1021.06 1020.81 1020.54 1020.27 1019.97 1019.64 1019.28 1018.90 1018.52 1018.15 1017.82 1017.54 1017.32 1017.15 1017.02 1016.91 1016.80 1016.68 1016.54 1016.38
1023.61 1023.69 1023.77 1023.84 1023.89 1023.92 1023.91 1023.87 1023.80 1023.73 1023.64 1023.56 1023.47 1023.39 1023.30 1023.20 1023.07 1022.92 1022.74 1022.53 1022.30 1022.06 1021.82 1021.57 1021.31 1021.05 1020.77 1020.46 1020.13 1019.78 1019.42 1019.05 1018.70 1018.37 1018.09 1017.85 1017.65 1017.48 1017.33 1017.18 1017.02 1016.84 1016.66
1023.79 1023.89 1023.99 1024.07 1024.13 1024.15 1024.14 1024.10 1024.03 1023.94 1023.84 1023.75 1023.65 1023.56 1023.47 1023.37 1023.25 1023.11 1022.95 1022.77 1022.57 1022.36 1022.14 1021.91 1021.68 1021.43 1021.17 1020.89 1020.59 1020.28 1019.95 1019.61 1019.29 1018.99 1018.72 1018.48 1018.28 1018.09 1017.92 1017.74 1017.57 1017.38 1017.18
1023.89 1024.01 1024.13 1024.22 1024.28 1024.30 1024.29 1024.24 1024.16 1024.07 1023.97 1023.87 1023.77 1023.67 1023.58 1023.47 1023.36 1023.22 1023.07 1022.90 1022.72 1022.52 1022.33 1022.13 1021.92 1021.72 1021.50 1021.27 1021.02 1020.76 1020.49 1020.22 1019.95 1019.69 1019.45 1019.23 1019.04 1018.85 1018.68 1018.50 1018.31 1018.11 1017.90
Thickness
5733 5732 5731 5730 5730 5729 5728 5728 5727 5726 5726 5727 5726 5726 5726 5727 5727 5728 5729 5730 5731 5732 5733 5734 5736 5737 5739 5741 5743 5745 5748 5748 5749 5749 5750 5752 5753 5754 5756 5757 5758 5760 5762
5732 5730 5729 5728 5728 5727 5726 5725 5724 5723 5723 5723 5723 5723 5723 5723 5724 5725 5725 5726 5728 5729 5730 5731 5732 5734 5736 5738 5740 5743 5745 5746 5746 5747 5747 5749 5750 5751 5753 5754 5756 5757 5759
5730 5729 5727 5726 5725 5725 5724 5723 5722 5721 5720 5720 5720 5720 5720 5720 5721 5721 5722 5723 5724 5725 5726 5728 5729 5731 5732 5734 5735 5738 5740 5741 5742 5743 5744 5745 5747 5748 5750 5752 5753 5755 5756
5728 5727 5725 5724 5723 5723 5721 5720 5718 5716 5715 5715 5715 5716 5717 5717 5718 5718 5719 5719 5720 5721 5723 5724 5726 5727 5729 5731 5732 5733 5735 5737 5738 5739 5740 5742 5743 5745 5746 5748 5750 5752 5753
5726 5725 5723 5722 5721 5720 5718 5717 5715 5713 5711 5711 5711 5712 5712 5713 5714 5715 5715 5716 5717 5718 5719 5720 5722 5724 5725 5727 5729 5730 5731 5732 5734 5735 5737 5738 5739 5741 5743 5745 5747 5748 5749
5724 5723 5721 5720 5719 5717 5715 5714 5712 5711 5709 5708 5709 5708 5707 5709 5710 5711 5711 5712 5713 5714 5716 5717 5718 5720 5721 5723 5725 5726 5727 5728 5730 5731 5733 5734 5736 5737 5739 5741 5744 5745 5746
5722 5721 5719 5718 5717 5715 5713 5712 5710 5708 5706 5706 5703 5701 5702 5705 5705 5706 5707 5708 5709 5710 5712 5713 5714 5716 5717 5719 5721 5722 5723 5724 5725 5727 5729 5730 5732 5734 5736 5738 5739 5741 5742
5719 5719 5717 5716 5715 5713 5711 5709 5707 5704 5703 5702 5699 5694 5691 5693 5698 5702 5703 5704 5705 5706 5708 5709 5710 5711 5713 5715 5716 5718 5719 5720 5722 5723 5725 5726 5728 5730 5732 5733 5735 5737 5739
5717 5716 5715 5714 5713 5711 5709 5707 5706 5703 5699 5700 5699 5694 5687 5684 5688 5694 5697 5699 5700 5702 5703 5705 5706 5708 5709 5711 5712 5714 5715 5716 5718 5719 5720 5722 5724 5726 5728 5729 5731 5733 5735
5714 5714 5713 5712 5711 5710 5708 5706 5705 5702 5700 5696 5697 5696 5694 5691 5686 5685 5690 5694 5696 5697 5699 5701 5702 5703 5705 5706 5708 5709 5711 5712 5714 5715 5717 5718 5720 5721 5723 5725 5727 5729 5732
5712 5711 5711 5710 5709 5707 5706 5705 5703 5701 5699 5697 5695 5694 5693 5691 5689 5685 5682 5686 5690 5693 5695 5697 5698 5699 5701 5702 5704 5705 5707 5708 5710 5711 5713 5715 5716 5717 5719 5720 5722 5724 5726
5708 5709 5708 5707 5706 5705 5703 5702 5701 5699 5698 5696 5694 5693 5690 5688 5686 5684 5681 5681 5683 5687 5691 5693 5694 5695 5696 5698 5699 5700 5702 5704 5706 5708 5710 5712 5713 5714 5715 5716 5718 5719 5721
5704 5705 5705 5705 5704 5703 5701 5700 5699 5697 5695 5694 5692 5691 5690 5688 5687 5685 5682 5680 5679 5682 5685 5688 5690 5691 5693 5694 5695 5696 5698 5699 5701 5704 5707 5708 5709 5710 5711 5712 5713 5715 5716
5702 5703 5702 5702 5701 5700 5699 5697 5695 5694 5692 5691 5690 5689 5687 5687 5686 5685 5682 5679 5675 5675 5678 5681 5686 5688 5689 5690 5691 5692 5694 5695 5697 5699 5701 5702 5704 5705 5706 5707 5708 5709 5711
5702 5701 5700 5699 5698 5697 5696 5694 5692 5690 5689 5688 5687 5686 5684 5684 5684 5683 5682 5680 5674 5670 5670 5675 5678 5683 5684 5686 5687 5688 5689 5691 5692 5694 5695 5696 5697 5699 5700 5702 5703 5705 5707
5699 5698 5697 5696 5695 5694 5693 5691 5689 5687 5686 5684 5683 5682 5681 5680 5680 5679 5678 5677 5675 5671 5667 5670 5673 5677 5679 5681 5682 5683 5684 5686 5687 5688 5690 5690 5692 5693 5695 5696 5698 5701 5704
5696 5695 5694 5692 5691 5690 5689 5687 5685 5684 5682 5680 5679 5678 5676 5676 5674 5674 5673 5672 5670 5668 5665 5666 5669 5672 5674 5674 5676 5678 5679 5680 5681 5683 5684 5685 5686 5688 5689 5691 5692 5694 5698
5693 5692 5690 5689 5687 5686 5684 5683 5681 5680 5678 5676 5674 5673 5672 5671 5669 5668 5667 5666 5665 5664 5662 5660 5662 5664 5666 5668 5669 5670 5671 5673 5675 5677 5678 5679 5680 5682 5683 5684 5685 5687 5689
5688 5688 5687 5685 5683 5682 5680 5678 5677 5675 5673 5671 5670 5668 5667 5665 5663 5662 5661 5660 5659 5660 5657 5655 5655 5657 5658 5660 5661 5662 5664 5665 5668 5670 5671 5672 5674 5675 5676 5677 5678 5680 5681
5684 5683 5682 5680 5679 5678 5676 5674 5673 5670 5668 5667 5665 5664 5662 5660 5658 5657 5656 5654 5653 5652 5650 5649 5648 5649 5650 5652 5652 5652 5654 5656 5658 5661 5662 5663 5665 5667 5668 5670 5671 5672 5674
5679 5678 5676 5675 5674 5673 5671 5669 5668 5665 5663 5661 5659 5658 5657 5655 5654 5652 5651 5648 5646 5644 5642 5640 5639 5639 5640 5641 5641 5642 5643 5646 5649 5651 5652 5654 5656 5658 5659 5661 5662 5664 5665
5673 5672 5670 5669 5668 5667 5666 5665 5662 5659 5656 5654 5652 5651 5650 5648 5647 5646 5645 5643 5641 5637 5634 5632 5630 5629 5630 5631 5632 5633 5633 5634 5636 5641 5641 5644 5646 5647 5649 5651 5652 5654 5655
5667 5665 5663 5662 5660 5660 5659 5658 5656 5652 5649 5646 5644 5643 5642 5641 5639 5637 5636 5635 5633 5631 5630 5626 5623 5622 5623 5624 5624 5624 5624 5624 5626 5630 5631 5634 5636 5637 5639 5641 5642 5644 5645
5661 5659 5657 5655 5654 5653 5652 5651 5648 5645 5642 5639 5637 5635 5632 5631 5630 5629 5627 5625 5623 5622 5621 5620 5618 5617 5617 5617 5617 5616 5616 5617 5619 5620 5621 5621 5624 5626 5629 5630 5631 5633 5634
5655 5653 5651 5649 5647 5645 5645 5643 5641 5637 5633 5630 5628 5626 5624 5622 5622 5620 5618 5615 5614 5613 5613 5612 5611 5610 5610 5609 5608 5607 5605 5604 5605 5607 5608 5607 5610 5613 5616 5619 5620 5620 5621
5650 5647 5644 5642 5640 5637 5637 5635 5633 5629 5624 5621 5619 5617 5616 5614 5613 5611 5608 5605 5603 5602 5602 5602 5601 5601 5599 5598 5597 5595 5593 5591 5590 5592 5594 5593 5594 5595 5600 5605 5605 5605 5606